Time,TemperatureF,DewpointF,PressureIn,WindDirection,WindDirectionDegrees,WindSpeedMPH,WindSpeedGustMPH,Humidity,HourlyPrecipIn,Conditions,Clouds,dailyrainin,SoftwareType,DateUTC
2013-05-06 00:01:00,51.7,46.7,30.13,North,5,2.0,7.0,83,0.00,,---,0.02,VWS V14.01,2013-05-06 05:01:00,
2013-05-06 00:06:00,51.7,46.7,30.13,North,355,3.0,5.0,83,0.00,,---,0.00,VWS V14.01,2013-05-06 05:06:00,
2013-05-06 00:11:00,51.6,46.6,30.13,North,360,4.0,9.0,83,0.00,,---,0.00,VWS V14.01,2013-05-06 05:11:00,
2013-05-06 00:16:00,51.5,46.5,30.13,North,10,3.0,9.0,83,0.00,,---,0.00,VWS V14.01,2013-05-06 05:16:00,
2013-05-06 00:21:00,51.5,46.5,30.13,North,5,2.0,9.0,83,0.00,,---,0.00,VWS V14.01,2013-05-06 05:21:00,
2013-05-06 00:26:00,51.4,46.4,30.13,North,355,5.0,9.0,83,0.00,,---,0.00,VWS V14.01,2013-05-06 05:26:00,
2013-05-06 00:31:00,51.3,46.0,30.13,North,360,0.0,9.0,82,0.00,,---,0.00,VWS V14.01,2013-05-06 05:31:00,
2013-05-06 00:36:00,51.2,46.2,30.13,North,360,1.0,5.0,83,0.00,,---,0.00,VWS V14.01,2013-05-06 05:36:00,
2013-05-06 00:41:00,51.1,46.1,30.13,NNE,13,1.0,5.0,83,0.00,,---,0.00,VWS V14.01,2013-05-06 05:41:00,
2013-05-06 00:46:00,51.0,46.0,30.13,North,5,4.0,5.0,83,0.00,,---,0.00,VWS V14.01,2013-05-06 05:46:00,
2013-05-06 00:51:00,50.8,45.8,30.13,North,11,2.0,7.0,83,0.00,,---,0.00,VWS V14.01,2013-05-06 05:51:00,
2013-05-06 00:56:00,50.7,45.7,30.13,North,350,0.0,7.0,83,0.00,,---,0.00,VWS V14.01,2013-05-06 05:56:00,
2013-05-06 01:01:00,50.7,45.7,30.13,North,5,0.0,7.0,83,0.00,,---,0.00,VWS V14.01,2013-05-06 06:01:00,
2013-05-06 01:06:00,50.6,46.0,30.12,North,360,0.0,4.0,84,0.00,,---,0.00,VWS V14.01,2013-05-06 06:06:00,
2013-05-06 01:11:00,50.6,46.0,30.12,North,360,0.0,4.0,84,0.00,,---,0.00,VWS V14.01,2013-05-06 06:11:00,
2013-05-06 01:16:00,50.5,45.8,30.13,North,5,0.0,4.0,84,0.00,,---,0.00,VWS V14.01,2013-05-06 06:16:00,
2013-05-06 01:21:00,50.5,45.8,30.13,North,355,4.0,5.0,84,0.00,,---,0.00,VWS V14.01,2013-05-06 06:21:00,
2013-05-06 01:26:00,50.5,45.8,30.13,North,360,4.0,5.0,84,0.00,,---,0.00,VWS V14.01,2013-05-06 06:26:00,
2013-05-06 01:31:00,50.5,45.8,30.12,North,355,0.0,5.0,84,0.00,,---,0.00,VWS V14.01,2013-05-06 06:31:00,
2013-05-06 01:36:00,50.5,45.8,30.12,North,5,2.0,7.0,84,0.00,,---,0.00,VWS V14.01,2013-05-06 06:36:00,
2013-05-06 01:41:00,50.4,45.8,30.12,North,11,0.0,7.0,84,0.00,,---,0.00,VWS V14.01,2013-05-06 06:41:00,
2013-05-06 01:46:00,50.4,45.8,30.12,North,11,3.0,7.0,84,0.00,,---,0.00,VWS V14.01,2013-05-06 06:46:00,
2013-05-06 01:51:00,50.4,45.8,30.12,North,360,2.0,7.0,84,0.00,,---,0.00,VWS V14.01,2013-05-06 06:51:00,
2013-05-06 01:56:00,50.3,46.0,30.12,North,5,5.0,7.0,85,0.00,,---,0.00,VWS V14.01,2013-05-06 06:56:00,
2013-05-06 02:01:00,50.3,46.0,30.11,North,5,3.0,7.0,85,0.00,,---,0.00,VWS V14.01,2013-05-06 07:01:00,
2013-05-06 02:06:00,50.3,46.0,30.11,North,360,2.0,6.0,85,0.00,,---,0.00,VWS V14.01,2013-05-06 07:06:00,
2013-05-06 02:11:00,50.2,45.9,30.11,NNE,29,3.0,7.0,85,0.00,,---,0.00,VWS V14.01,2013-05-06 07:11:00,
2013-05-06 02:16:00,50.1,45.8,30.11,NNE,20,0.0,7.0,85,0.00,,---,0.00,VWS V14.01,2013-05-06 07:16:00,
2013-05-06 02:21:00,50.1,45.8,30.11,NNE,19,4.0,7.0,85,0.00,,---,0.00,VWS V14.01,2013-05-06 07:21:00,
2013-05-06 02:26:00,50.0,45.7,30.11,NNE,13,4.0,10.0,85,0.00,,---,0.00,VWS V14.01,2013-05-06 07:26:00,
2013-05-06 02:31:00,49.9,45.6,30.10,North,349,3.0,10.0,85,0.00,,---,0.00,VWS V14.01,2013-05-06 07:31:00,
2013-05-06 02:36:00,49.8,45.8,30.11,NNE,19,4.0,5.0,86,0.00,,---,0.00,VWS V14.01,2013-05-06 07:36:00,
2013-05-06 02:41:00,49.8,45.8,30.11,NNE,21,0.0,6.0,86,0.00,,---,0.00,VWS V14.01,2013-05-06 07:41:00,
2013-05-06 02:46:00,49.7,45.7,30.11,North,11,1.0,6.0,86,0.00,,---,0.00,VWS V14.01,2013-05-06 07:46:00,
2013-05-06 02:51:00,49.7,45.7,30.11,NNE,22,2.0,6.0,86,0.00,,---,0.00,VWS V14.01,2013-05-06 07:51:00,
2013-05-06 02:56:00,49.6,45.6,30.11,NNE,23,0.0,6.0,86,0.00,,---,0.00,VWS V14.01,2013-05-06 07:56:00,
2013-05-06 03:01:00,49.5,45.5,30.11,NNE,15,0.0,6.0,86,0.00,,---,0.00,VWS V14.01,2013-05-06 08:01:00,
2013-05-06 03:06:00,49.4,45.4,30.11,NNE,26,1.0,5.0,86,0.00,,---,0.00,VWS V14.01,2013-05-06 08:06:00,
2013-05-06 03:11:00,49.4,45.4,30.11,North,350,4.0,9.0,86,0.00,,---,0.00,VWS V14.01,2013-05-06 08:11:00,
2013-05-06 03:16:00,49.3,45.3,30.10,North,350,0.0,9.0,86,0.00,,---,0.00,VWS V14.01,2013-05-06 08:16:00,
2013-05-06 03:21:00,49.2,45.5,30.11,North,5,2.0,9.0,87,0.00,,---,0.00,VWS V14.01,2013-05-06 08:21:00,
2013-05-06 03:25:00,49.2,45.5,30.11,NNE,24,5.0,9.0,87,0.00,,---,0.00,VWS V14.01,2013-05-06 08:25:00,
2013-05-06 03:30:00,49.1,45.4,30.10,North,9,3.0,9.0,87,0.00,,---,0.00,VWS V14.01,2013-05-06 08:30:00,
2013-05-06 03:35:00,49.0,45.3,30.11,North,360,2.0,7.0,87,0.00,,---,0.00,VWS V14.01,2013-05-06 08:35:00,
2013-05-06 03:40:00,48.9,45.2,30.11,NNE,13,2.0,7.0,87,0.00,,---,0.00,VWS V14.01,2013-05-06 08:40:00,
2013-05-06 03:45:00,48.8,45.1,30.11,North,355,2.0,7.0,87,0.00,,---,0.00,VWS V14.01,2013-05-06 08:45:00,
2013-05-06 03:50:00,48.8,45.1,30.11,North,11,0.0,7.0,87,0.00,,---,0.00,VWS V14.01,2013-05-06 08:50:00,
2013-05-06 03:55:00,48.8,45.4,30.11,North,5,3.0,7.0,88,0.00,,---,0.00,VWS V14.01,2013-05-06 08:55:00,
2013-05-06 04:00:00,48.8,45.4,30.11,North,360,2.0,7.0,88,0.00,,---,0.00,VWS V14.01,2013-05-06 09:00:00,
2013-05-06 04:05:00,48.7,45.3,30.11,North,360,5.0,5.0,88,0.00,,---,0.00,VWS V14.01,2013-05-06 09:05:00,
2013-05-06 04:10:00,48.7,45.3,30.12,North,360,3.0,5.0,88,0.00,,---,0.00,VWS V14.01,2013-05-06 09:10:00,
2013-05-06 04:15:00,48.7,45.3,30.12,North,360,0.0,5.0,88,0.00,,---,0.00,VWS V14.01,2013-05-06 09:15:00,
2013-05-06 04:20:00,48.7,45.3,30.12,North,360,1.0,5.0,88,0.00,,---,0.00,VWS V14.01,2013-05-06 09:20:00,
2013-05-06 04:25:00,48.7,45.3,30.11,NNE,13,4.0,6.0,88,0.00,,---,0.00,VWS V14.01,2013-05-06 09:25:00,
2013-05-06 04:30:00,48.7,45.3,30.12,North,5,2.0,6.0,88,0.00,,---,0.00,VWS V14.01,2013-05-06 09:30:00,
2013-05-06 04:35:00,48.7,45.3,30.12,North,360,0.0,4.0,88,0.00,,---,0.00,VWS V14.01,2013-05-06 09:35:00,
2013-05-06 04:40:00,48.7,45.6,30.12,NE,44,3.0,5.0,89,0.00,,---,0.00,VWS V14.01,2013-05-06 09:40:00,
2013-05-06 04:45:00,48.6,45.5,30.12,North,9,1.0,5.0,89,0.00,,---,0.00,VWS V14.01,2013-05-06 09:45:00,
2013-05-06 04:50:00,48.6,45.2,30.11,North,9,0.0,5.0,88,0.00,,---,0.00,VWS V14.01,2013-05-06 09:50:00,
2013-05-06 04:55:00,48.5,45.4,30.12,North,9,0.0,5.0,89,0.00,,---,0.00,VWS V14.01,2013-05-06 09:55:00,
2013-05-06 05:00:00,48.5,45.4,30.12,NE,40,5.0,6.0,89,0.00,,---,0.00,VWS V14.01,2013-05-06 10:00:00,
2013-05-06 05:05:00,48.5,45.4,30.12,North,355,3.0,8.0,89,0.00,,---,0.00,VWS V14.01,2013-05-06 10:05:00,
2013-05-06 05:10:00,48.5,45.4,30.12,North,355,0.0,8.0,89,0.00,,---,0.00,VWS V14.01,2013-05-06 10:10:00,
2013-05-06 05:15:00,48.5,45.4,30.12,North,355,0.0,8.0,89,0.00,,---,0.00,VWS V14.01,2013-05-06 10:15:00,
2013-05-06 05:20:00,48.4,45.3,30.12,North,355,2.0,8.0,89,0.00,,---,0.00,VWS V14.01,2013-05-06 10:20:00,
2013-05-06 05:25:00,48.4,45.3,30.12,NNE,28,0.0,8.0,89,0.00,,---,0.00,VWS V14.01,2013-05-06 10:25:00,
2013-05-06 05:30:00,48.3,45.2,30.12,North,355,1.0,8.0,89,0.00,,---,0.00,VWS V14.01,2013-05-06 10:30:00,
2013-05-06 05:35:00,48.2,46.3,30.12,North,360,4.0,7.0,93,0.00,,---,0.00,VWS V14.01,2013-05-06 10:35:00,
2013-05-06 05:40:00,48.1,45.0,30.12,North,355,0.0,7.0,89,0.00,,---,0.00,VWS V14.01,2013-05-06 10:40:00,
2013-05-06 05:45:00,48.0,44.9,30.12,North,355,1.0,7.0,89,0.00,,---,0.00,VWS V14.01,2013-05-06 10:45:00,
2013-05-06 05:50:00,48.0,44.9,30.12,North,355,0.0,7.0,89,0.00,,---,0.00,VWS V14.01,2013-05-06 10:50:00,
2013-05-06 05:55:00,48.0,44.9,30.12,North,355,2.0,7.0,89,0.00,,---,0.00,VWS V14.01,2013-05-06 10:55:00,
2013-05-06 06:00:00,48.0,44.9,30.12,North,355,0.0,7.0,89,0.00,,---,0.00,VWS V14.01,2013-05-06 11:00:00,
2013-05-06 06:05:00,48.0,44.9,30.12,North,355,4.0,4.0,89,0.00,,---,0.00,VWS V14.01,2013-05-06 11:05:00,
2013-05-06 06:10:00,47.9,44.8,30.12,North,355,0.0,4.0,89,0.00,,---,0.00,VWS V14.01,2013-05-06 11:10:00,
2013-05-06 06:15:00,47.9,44.8,30.12,North,355,1.0,4.0,89,0.00,,---,0.00,VWS V14.01,2013-05-06 11:15:00,
2013-05-06 06:20:00,47.9,44.8,30.12,North,355,2.0,4.0,89,0.00,,---,0.00,VWS V14.01,2013-05-06 11:20:00,
2013-05-06 06:25:00,47.9,44.8,30.12,North,355,0.0,4.0,89,0.00,,---,0.00,VWS V14.01,2013-05-06 11:25:00,
2013-05-06 06:30:00,47.9,45.1,30.12,North,355,0.0,4.0,90,0.00,,---,0.00,VWS V14.01,2013-05-06 11:30:00,
2013-05-06 06:35:00,47.9,45.1,30.12,North,355,1.0,1.0,90,0.00,,---,0.00,VWS V14.01,2013-05-06 11:35:00,
2013-05-06 06:40:00,47.9,45.1,30.13,North,355,3.0,5.0,90,0.00,,---,0.00,VWS V14.01,2013-05-06 11:40:00,
2013-05-06 06:45:00,47.9,45.1,30.13,North,355,0.0,5.0,90,0.00,,---,0.00,VWS V14.01,2013-05-06 11:45:00,
2013-05-06 06:50:00,48.0,45.2,30.13,North,355,0.0,5.0,90,0.00,,---,0.00,VWS V14.01,2013-05-06 11:50:00,
2013-05-06 06:55:00,48.0,45.2,30.13,North,355,2.0,5.0,90,0.00,,---,0.00,VWS V14.01,2013-05-06 11:55:00,
2013-05-06 07:00:00,48.0,44.9,30.13,NE,34,0.0,6.0,89,0.00,,---,0.00,VWS V14.01,2013-05-06 12:00:00,
2013-05-06 07:05:00,48.0,44.9,30.13,NNE,26,4.0,5.0,89,0.00,,---,0.00,VWS V14.01,2013-05-06 12:05:00,
2013-05-06 07:10:00,48.1,45.0,30.13,NNE,14,2.0,5.0,89,0.00,,---,0.00,VWS V14.01,2013-05-06 12:10:00,
2013-05-06 07:15:00,47.9,44.8,30.14,North,355,3.0,5.0,89,0.00,,---,0.00,VWS V14.01,2013-05-06 12:15:00,
2013-05-06 07:20:00,47.9,45.1,30.14,North,351,2.0,5.0,90,0.00,,---,0.00,VWS V14.01,2013-05-06 12:20:00,
2013-05-06 07:25:00,48.0,45.2,30.14,North,351,3.0,5.0,90,0.00,,---,0.00,VWS V14.01,2013-05-06 12:25:00,
2013-05-06 07:30:00,48.1,45.0,30.14,North,351,3.0,5.0,89,0.00,,---,0.00,VWS V14.01,2013-05-06 12:30:00,
2013-05-06 07:35:00,48.1,45.0,30.14,North,350,1.0,3.0,89,0.00,,---,0.00,VWS V14.01,2013-05-06 12:35:00,
2013-05-06 07:40:00,48.1,45.0,30.14,NNE,25,0.0,5.0,89,0.00,,---,0.00,VWS V14.01,2013-05-06 12:40:00,
2013-05-06 07:45:00,48.1,45.0,30.14,North,360,5.0,6.0,89,0.00,,---,0.00,VWS V14.01,2013-05-06 12:45:00,
2013-05-06 07:50:00,48.1,45.0,30.14,NNW,340,5.0,6.0,89,0.00,,---,0.00,VWS V14.01,2013-05-06 12:50:00,
2013-05-06 07:55:00,48.1,45.0,30.14,North,355,2.0,6.0,89,0.00,,---,0.00,VWS V14.01,2013-05-06 12:55:00,
2013-05-06 08:00:00,48.1,45.0,30.15,North,360,2.0,6.0,89,0.00,,---,0.00,VWS V14.01,2013-05-06 13:00:00,
2013-05-06 08:05:00,48.2,45.1,30.15,North,360,2.0,6.0,89,0.00,,---,0.00,VWS V14.01,2013-05-06 13:05:00,
2013-05-06 08:10:00,48.2,46.3,30.15,NNE,32,1.0,6.0,93,0.00,,---,0.00,VWS V14.01,2013-05-06 13:10:00,
2013-05-06 08:15:00,48.2,45.1,30.15,NNE,17,0.0,6.0,89,0.00,,---,0.00,VWS V14.01,2013-05-06 13:15:00,
2013-05-06 08:20:00,48.3,45.2,30.14,North,9,2.0,6.0,89,0.00,,---,0.00,VWS V14.01,2013-05-06 13:20:00,
2013-05-06 08:25:00,48.4,45.3,30.15,North,360,0.0,6.0,89,0.00,,---,0.00,VWS V14.01,2013-05-06 13:25:00,
2013-05-06 08:30:00,48.5,45.4,30.15,NNE,16,5.0,6.0,89,0.00,,---,0.00,VWS V14.01,2013-05-06 13:30:00,
2013-05-06 08:35:00,48.5,45.4,30.15,NNW,346,3.0,5.0,89,0.00,,---,0.00,VWS V14.01,2013-05-06 13:35:00,
2013-05-06 08:40:00,48.5,45.4,30.15,North,355,1.0,5.0,89,0.00,,---,0.00,VWS V14.01,2013-05-06 13:40:00,
2013-05-06 08:45:00,48.6,45.5,30.15,North,355,4.0,5.0,89,0.00,,---,0.00,VWS V14.01,2013-05-06 13:45:00,
2013-05-06 08:50:00,48.7,45.6,30.15,NNE,15,1.0,5.0,89,0.00,,---,0.00,VWS V14.01,2013-05-06 13:50:00,
2013-05-06 08:55:00,48.7,45.6,30.15,NNE,18,0.0,5.0,89,0.00,,---,0.00,VWS V14.01,2013-05-06 13:55:00,
2013-05-06 09:00:00,48.7,45.6,30.15,NNE,19,0.0,5.0,89,0.00,,---,0.00,VWS V14.01,2013-05-06 14:00:00,
2013-05-06 09:05:00,48.8,45.7,30.15,NNE,12,5.0,6.0,89,0.00,,---,0.00,VWS V14.01,2013-05-06 14:05:00,
2013-05-06 09:10:00,48.7,45.3,30.15,North,360,0.0,6.0,88,0.00,,---,0.00,VWS V14.01,2013-05-06 14:10:00,
2013-05-06 09:15:00,48.8,45.4,30.15,North,9,0.0,6.0,88,0.00,,---,0.00,VWS V14.01,2013-05-06 14:15:00,
2013-05-06 09:20:00,48.8,45.4,30.15,North,360,2.0,6.0,88,0.00,,---,0.00,VWS V14.01,2013-05-06 14:20:00,
2013-05-06 09:25:00,48.9,45.5,30.15,NNE,26,4.0,6.0,88,0.00,,---,0.00,VWS V14.01,2013-05-06 14:25:00,
2013-05-06 09:30:00,49.0,45.6,30.15,North,360,4.0,6.0,88,0.00,,---,0.00,VWS V14.01,2013-05-06 14:30:00,
2013-05-06 09:35:00,49.0,45.6,30.15,North,5,5.0,6.0,88,0.00,,---,0.00,VWS V14.01,2013-05-06 14:35:00,
2013-05-06 09:40:00,48.9,45.5,30.15,North,360,3.0,6.0,88,0.00,,---,0.00,VWS V14.01,2013-05-06 14:40:00,
2013-05-06 09:45:00,49.0,45.6,30.15,NNW,334,3.0,6.0,88,0.00,,---,0.00,VWS V14.01,2013-05-06 14:45:00,
2013-05-06 09:50:00,48.9,46.4,30.15,North,355,0.0,6.0,91,0.00,,---,0.00,VWS V14.01,2013-05-06 14:50:00,
2013-05-06 09:55:00,49.1,45.7,30.15,North,355,2.0,6.0,88,0.00,,---,0.00,VWS V14.01,2013-05-06 14:55:00,
2013-05-06 10:00:00,49.2,45.8,30.15,North,351,0.0,6.0,88,0.00,,---,0.00,VWS V14.01,2013-05-06 15:00:00,
2013-05-06 10:05:00,49.4,45.7,30.15,NNW,343,0.0,5.0,87,0.00,,---,0.00,VWS V14.01,2013-05-06 15:05:00,
2013-05-06 10:10:00,49.5,45.8,30.15,NW,313,1.0,7.0,87,0.00,,---,0.00,VWS V14.01,2013-05-06 15:10:00,
2013-05-06 10:15:00,49.4,45.7,30.15,North,355,1.0,7.0,87,0.00,,---,0.00,VWS V14.01,2013-05-06 15:15:00,
2013-05-06 10:20:00,49.6,45.6,30.15,NNW,342,4.0,7.0,86,0.00,,---,0.00,VWS V14.01,2013-05-06 15:20:00,
2013-05-06 10:25:00,49.8,45.8,30.15,NNW,342,2.0,7.0,86,0.00,,---,0.00,VWS V14.01,2013-05-06 15:25:00,
2013-05-06 10:30:00,49.7,45.7,30.15,North,355,5.0,7.0,86,0.00,,---,0.00,VWS V14.01,2013-05-06 15:30:00,
2013-05-06 10:35:00,49.8,45.8,30.15,NW,310,5.0,6.0,86,0.00,,---,0.00,VWS V14.01,2013-05-06 15:35:00,
2013-05-06 10:40:00,49.9,45.6,30.15,NW,305,1.0,6.0,85,0.00,,---,0.00,VWS V14.01,2013-05-06 15:40:00,
2013-05-06 10:45:00,49.9,45.6,30.15,NW,316,4.0,6.0,85,0.00,,---,0.00,VWS V14.01,2013-05-06 15:45:00,
2013-05-06 10:50:00,50.0,45.7,30.15,NNW,331,3.0,6.0,85,0.00,,---,0.00,VWS V14.01,2013-05-06 15:50:00,
2013-05-06 10:55:00,50.1,45.8,30.15,NNW,337,0.0,6.0,85,0.00,,---,0.00,VWS V14.01,2013-05-06 15:55:00,
2013-05-06 11:00:00,50.3,46.0,30.15,North,10,5.0,10.0,85,0.00,,---,0.00,VWS V14.01,2013-05-06 16:00:00,
2013-05-06 11:05:00,50.4,45.8,30.15,North,11,0.0,4.0,84,0.00,,---,0.00,VWS V14.01,2013-05-06 16:05:00,
2013-05-06 11:10:00,50.6,46.0,30.15,North,10,5.0,6.0,84,0.00,,---,0.00,VWS V14.01,2013-05-06 16:10:00,
2013-05-06 11:15:00,50.7,46.0,30.15,North,350,2.0,7.0,84,0.00,,---,0.00,VWS V14.01,2013-05-06 16:15:00,
2013-05-06 11:20:00,50.8,46.2,30.15,WNW,294,3.0,7.0,84,0.00,,---,0.00,VWS V14.01,2013-05-06 16:20:00,
2013-05-06 11:25:00,50.8,45.8,30.15,NNW,330,4.0,7.0,83,0.00,,---,0.00,VWS V14.01,2013-05-06 16:25:00,
2013-05-06 11:30:00,50.8,45.8,30.15,North,9,4.0,7.0,83,0.00,,---,0.00,VWS V14.01,2013-05-06 16:30:00,
2013-05-06 11:35:00,50.9,45.9,30.15,NNW,344,0.0,5.0,83,0.00,,---,0.00,VWS V14.01,2013-05-06 16:35:00,
2013-05-06 11:40:00,51.2,46.5,30.15,NNW,344,2.0,5.0,84,0.00,,---,0.00,VWS V14.01,2013-05-06 16:40:00,
2013-05-06 11:45:00,51.4,46.4,30.15,NNE,21,2.0,7.0,83,0.00,,---,0.00,VWS V14.01,2013-05-06 16:45:00,
2013-05-06 11:50:00,51.5,46.5,30.14,NE,36,0.0,7.0,83,0.00,,---,0.00,VWS V14.01,2013-05-06 16:50:00,
2013-05-06 11:55:00,51.6,46.6,30.14,NE,34,3.0,7.0,83,0.00,,---,0.00,VWS V14.01,2013-05-06 16:55:00,
2013-05-06 12:00:00,51.6,46.6,30.15,North,360,6.0,11.0,83,0.00,,---,0.00,VWS V14.01,2013-05-06 17:00:00,
2013-05-06 12:05:00,51.7,46.7,30.15,North,350,4.0,7.0,83,0.00,,---,0.00,VWS V14.01,2013-05-06 17:05:00,
2013-05-06 12:10:00,51.7,46.4,30.15,NNE,23,6.0,7.0,82,0.00,,---,0.00,VWS V14.01,2013-05-06 17:10:00,
2013-05-06 12:15:00,51.9,46.9,30.14,NNE,13,1.0,7.0,83,0.00,,---,0.00,VWS V14.01,2013-05-06 17:15:00,
2013-05-06 12:20:00,52.3,47.3,30.14,NNW,340,4.0,7.0,83,0.00,,---,0.00,VWS V14.01,2013-05-06 17:20:00,
2013-05-06 12:25:00,52.6,47.6,30.14,North,355,4.0,7.0,83,0.00,,---,0.00,VWS V14.01,2013-05-06 17:25:00,
2013-05-06 12:30:00,52.8,47.5,30.14,NNE,17,3.0,7.0,82,0.00,,---,0.00,VWS V14.01,2013-05-06 17:30:00,
2013-05-06 12:35:00,52.9,47.2,30.14,NNE,22,3.0,4.0,81,0.00,,---,0.00,VWS V14.01,2013-05-06 17:35:00,
2013-05-06 12:40:00,53.2,47.5,30.14,North,5,2.0,4.0,81,0.00,,---,0.00,VWS V14.01,2013-05-06 17:40:00,
2013-05-06 12:45:00,53.3,47.6,30.14,NNW,344,3.0,6.0,81,0.00,,---,0.00,VWS V14.01,2013-05-06 17:45:00,
2013-05-06 12:50:00,53.7,48.0,30.14,North,355,5.0,9.0,81,0.00,,---,0.00,VWS V14.01,2013-05-06 17:50:00,
2013-05-06 12:55:00,53.7,47.7,30.14,NNE,29,5.0,9.0,80,0.00,,---,0.00,VWS V14.01,2013-05-06 17:55:00,
2013-05-06 13:00:00,53.9,47.9,30.13,NNW,334,3.0,11.0,80,0.00,,---,0.00,VWS V14.01,2013-05-06 18:00:00,
2013-05-06 13:05:00,54.2,47.8,30.13,NW,324,0.0,5.0,79,0.00,,---,0.00,VWS V14.01,2013-05-06 18:05:00,
2013-05-06 13:10:00,54.5,48.1,30.13,NW,323,0.0,5.0,79,0.00,,---,0.00,VWS V14.01,2013-05-06 18:10:00,
2013-05-06 13:15:00,55.1,48.7,30.13,NNE,17,3.0,6.0,79,0.00,,---,0.00,VWS V14.01,2013-05-06 18:15:00,
2013-05-06 13:20:00,55.7,49.0,30.13,North,355,6.0,7.0,78,0.00,,---,0.00,VWS V14.01,2013-05-06 18:20:00,
2013-05-06 13:25:00,55.8,48.7,30.12,NW,308,4.0,7.0,77,0.00,,---,0.00,VWS V14.01,2013-05-06 18:25:00,
2013-05-06 13:30:00,56.0,48.5,30.12,NNW,345,6.0,10.0,76,0.00,,---,0.00,VWS V14.01,2013-05-06 18:30:00,
2013-05-06 13:35:00,56.5,49.4,30.12,NNW,340,0.0,4.0,77,0.00,,---,0.00,VWS V14.01,2013-05-06 18:35:00,
2013-05-06 13:40:00,56.8,49.3,30.12,NNE,22,2.0,6.0,76,0.00,,---,0.00,VWS V14.01,2013-05-06 18:40:00,
2013-05-06 13:45:00,57.2,49.7,30.12,NNE,24,0.0,6.0,76,0.00,,---,0.00,VWS V14.01,2013-05-06 18:45:00,
2013-05-06 13:50:00,57.7,49.8,30.12,North,5,1.0,6.0,75,0.00,,---,0.00,VWS V14.01,2013-05-06 18:50:00,
2013-05-06 13:55:00,57.7,49.5,30.11,North,5,2.0,6.0,74,0.00,,---,0.00,VWS V14.01,2013-05-06 18:55:00,
2013-05-06 14:00:00,58.2,50.3,30.11,North,350,1.0,10.0,75,0.00,,---,0.00,VWS V14.01,2013-05-06 19:00:00,
2013-05-06 14:05:00,58.6,50.3,30.11,North,360,1.0,6.0,74,0.00,,---,0.00,VWS V14.01,2013-05-06 19:05:00,
2013-05-06 14:10:00,59.0,50.4,30.11,ENE,66,1.0,6.0,73,0.00,,---,0.00,VWS V14.01,2013-05-06 19:10:00,
2013-05-06 14:15:00,59.0,50.4,30.11,NNE,13,3.0,9.0,73,0.00,,---,0.00,VWS V14.01,2013-05-06 19:15:00,
2013-05-06 14:20:00,59.1,50.5,30.11,NNE,19,0.0,9.0,73,0.00,,---,0.00,VWS V14.01,2013-05-06 19:20:00,
2013-05-06 14:25:00,59.5,50.5,30.11,NNE,15,1.0,9.0,72,0.00,,---,0.00,VWS V14.01,2013-05-06 19:25:00,
2013-05-06 14:30:00,59.9,50.9,30.10,NNW,338,0.0,9.0,72,0.00,,---,0.00,VWS V14.01,2013-05-06 19:30:00,
2013-05-06 14:35:00,60.3,51.2,30.10,NNE,18,4.0,4.0,72,0.00,,---,0.00,VWS V14.01,2013-05-06 19:35:00,
2013-05-06 14:40:00,60.4,50.6,30.10,NE,44,0.0,7.0,70,0.00,,---,0.00,VWS V14.01,2013-05-06 19:40:00,
2013-05-06 14:45:00,60.7,51.6,30.10,NW,307,4.0,7.0,72,0.00,,---,0.00,VWS V14.01,2013-05-06 19:45:00,
2013-05-06 14:49:00,60.9,51.1,30.09,NNW,334,4.0,8.0,70,0.00,,---,0.00,VWS V14.01,2013-05-06 19:49:00,
2013-05-06 14:54:00,61.1,51.6,30.09,NW,322,4.0,8.0,71,0.00,,---,0.00,VWS V14.01,2013-05-06 19:54:00,
2013-05-06 14:59:00,61.0,51.2,30.09,NNW,331,0.0,8.0,70,0.00,,---,0.00,VWS V14.01,2013-05-06 19:59:00,
2013-05-06 15:04:00,61.3,51.1,30.09,NW,326,1.0,4.0,69,0.00,,---,0.00,VWS V14.01,2013-05-06 20:04:00,
2013-05-06 15:09:00,61.8,51.5,30.08,North,351,3.0,5.0,69,0.00,,---,0.00,VWS V14.01,2013-05-06 20:09:00,
2013-05-06 15:14:00,62.1,51.4,30.08,West,274,4.0,5.0,68,0.00,,---,0.00,VWS V14.01,2013-05-06 20:14:00,
2013-05-06 15:19:00,62.2,51.1,30.08,NW,317,2.0,8.0,67,0.00,,---,0.00,VWS V14.01,2013-05-06 20:19:00,
2013-05-06 15:24:00,62.7,52.0,30.08,NW,314,1.0,8.0,68,0.00,,---,0.00,VWS V14.01,2013-05-06 20:24:00,
2013-05-06 15:29:00,62.9,51.8,30.08,NW,312,0.0,8.0,67,0.00,,---,0.00,VWS V14.01,2013-05-06 20:29:00,
2013-05-06 15:34:00,63.3,51.8,30.07,NW,320,1.0,4.0,66,0.00,,---,0.00,VWS V14.01,2013-05-06 20:34:00,
2013-05-06 15:39:00,63.6,52.5,30.07,NW,317,0.0,4.0,67,0.00,,---,0.00,VWS V14.01,2013-05-06 20:39:00,
2013-05-06 15:44:00,64.1,52.5,30.06,NW,322,0.0,4.0,66,0.00,,---,0.00,VWS V14.01,2013-05-06 20:44:00,
2013-05-06 15:49:00,64.2,52.2,30.06,NNE,15,0.0,5.0,65,0.00,,---,0.00,VWS V14.01,2013-05-06 20:49:00,
2013-05-06 15:54:00,64.3,52.7,30.06,East,81,3.0,5.0,66,0.00,,---,0.00,VWS V14.01,2013-05-06 20:54:00,
2013-05-06 15:59:00,64.7,52.7,30.06,NNE,23,5.0,7.0,65,0.00,,---,0.00,VWS V14.01,2013-05-06 20:59:00,
2013-05-06 16:04:00,64.6,52.6,30.06,East,82,0.0,5.0,65,0.00,,---,0.00,VWS V14.01,2013-05-06 21:04:00,
2013-05-06 16:09:00,64.4,52.4,30.05,NE,44,0.0,5.0,65,0.00,,---,0.00,VWS V14.01,2013-05-06 21:09:00,
2013-05-06 16:14:00,64.4,52.4,30.05,NNE,33,0.0,5.0,65,0.00,,---,0.00,VWS V14.01,2013-05-06 21:14:00,
2013-05-06 16:19:00,64.6,53.0,30.05,NE,34,2.0,5.0,66,0.00,,---,0.00,VWS V14.01,2013-05-06 21:19:00,
2013-05-06 16:24:00,64.8,52.8,30.05,NNE,31,3.0,5.0,65,0.00,,---,0.00,VWS V14.01,2013-05-06 21:24:00,
2013-05-06 16:29:00,65.1,53.9,30.05,NE,41,0.0,5.0,67,0.00,,---,0.00,VWS V14.01,2013-05-06 21:29:00,
2013-05-06 16:34:00,65.3,53.2,30.04,NE,53,0.0,5.0,65,0.00,,---,0.00,VWS V14.01,2013-05-06 21:34:00,
2013-05-06 16:39:00,65.2,52.7,30.04,ENE,57,2.0,5.0,64,0.00,,---,0.00,VWS V14.01,2013-05-06 21:39:00,
2013-05-06 16:44:00,65.4,52.9,30.04,ENE,57,0.0,5.0,64,0.00,,---,0.00,VWS V14.01,2013-05-06 21:44:00,
2013-05-06 16:49:00,65.8,53.3,30.04,NE,45,1.0,5.0,64,0.00,,---,0.00,VWS V14.01,2013-05-06 21:49:00,
2013-05-06 16:54:00,66.1,52.7,30.04,NE,40,0.0,5.0,62,0.00,,---,0.00,VWS V14.01,2013-05-06 21:54:00,
2013-05-06 16:59:00,66.3,52.9,30.03,NE,40,0.0,5.0,62,0.00,,---,0.00,VWS V14.01,2013-05-06 21:59:00,
2013-05-06 17:04:00,66.2,52.8,30.03,ENE,64,3.0,5.0,62,0.00,,---,0.00,VWS V14.01,2013-05-06 22:04:00,
2013-05-06 17:09:00,66.1,53.2,30.03,ENE,61,1.0,5.0,63,0.00,,---,0.00,VWS V14.01,2013-05-06 22:09:00,
2013-05-06 17:14:00,66.0,52.6,30.03,NE,49,0.0,5.0,62,0.00,,---,0.00,VWS V14.01,2013-05-06 22:14:00,
2013-05-06 17:19:00,66.1,53.2,30.03,ENE,57,0.0,5.0,63,0.00,,---,0.00,VWS V14.01,2013-05-06 22:19:00,
2013-05-06 17:24:00,66.3,53.3,30.03,NE,50,2.0,7.0,63,0.00,,---,0.00,VWS V14.01,2013-05-06 22:24:00,
2013-05-06 17:29:00,66.3,52.9,30.03,NE,50,1.0,7.0,62,0.00,,---,0.00,VWS V14.01,2013-05-06 22:29:00,
2013-05-06 17:34:00,66.4,53.0,30.03,NE,52,2.0,5.0,62,0.00,,---,0.00,VWS V14.01,2013-05-06 22:34:00,
2013-05-06 17:39:00,66.7,53.3,30.03,NE,53,0.0,5.0,62,0.00,,---,0.00,VWS V14.01,2013-05-06 22:39:00,
2013-05-06 17:44:00,66.6,52.8,30.03,NE,53,0.0,5.0,61,0.00,,---,0.00,VWS V14.01,2013-05-06 22:44:00,
2013-05-06 17:49:00,66.5,52.7,30.02,ENE,64,4.0,5.0,61,0.00,,---,0.00,VWS V14.01,2013-05-06 22:49:00,
2013-05-06 17:54:00,66.2,52.4,30.03,ENE,61,1.0,5.0,61,0.00,,---,0.00,VWS V14.01,2013-05-06 22:54:00,
2013-05-06 17:59:00,66.3,52.5,30.02,ENE,61,0.0,5.0,61,0.00,,---,0.00,VWS V14.01,2013-05-06 22:59:00,
2013-05-06 18:04:00,66.6,52.8,30.02,ENE,62,1.0,3.0,61,0.00,,---,0.00,VWS V14.01,2013-05-06 23:04:00,
2013-05-06 18:09:00,66.3,52.5,30.02,ENE,63,2.0,4.0,61,0.00,,---,0.00,VWS V14.01,2013-05-06 23:09:00,
2013-05-06 18:14:00,66.1,52.3,30.02,ENE,63,2.0,4.0,61,0.00,,---,0.00,VWS V14.01,2013-05-06 23:14:00,
2013-05-06 18:19:00,65.9,52.1,30.02,ENE,63,0.0,4.0,61,0.00,,---,0.00,VWS V14.01,2013-05-06 23:19:00,
2013-05-06 18:24:00,65.8,52.0,30.02,ENE,63,0.0,4.0,61,0.00,,---,0.00,VWS V14.01,2013-05-06 23:24:00,
2013-05-06 18:29:00,65.9,52.1,30.02,ENE,64,2.0,4.0,61,0.00,,---,0.00,VWS V14.01,2013-05-06 23:29:00,
2013-05-06 18:34:00,65.7,51.5,30.01,ENE,64,1.0,2.0,60,0.00,,---,0.00,VWS V14.01,2013-05-06 23:34:00,
2013-05-06 18:39:00,65.6,51.4,30.02,ENE,65,0.0,4.0,60,0.00,,---,0.00,VWS V14.01,2013-05-06 23:39:00,
2013-05-06 18:44:00,65.4,51.2,30.02,ENE,64,0.0,4.0,60,0.00,,---,0.00,VWS V14.01,2013-05-06 23:44:00,
2013-05-06 18:49:00,65.4,51.2,30.01,ENE,64,0.0,4.0,60,0.00,,---,0.00,VWS V14.01,2013-05-06 23:49:00,
2013-05-06 18:54:00,65.4,51.2,30.01,ENE,65,0.0,4.0,60,0.00,,---,0.00,VWS V14.01,2013-05-06 23:54:00,
2013-05-06 18:59:00,65.4,51.6,30.02,ENE,65,0.0,4.0,61,0.00,,---,0.00,VWS V14.01,2013-05-06 23:59:00,
2013-05-06 19:04:00,65.5,51.3,30.02,ENE,64,0.0,0.0,60,0.00,,---,0.00,VWS V14.01,2013-05-07 00:04:00,
2013-05-06 19:09:00,65.5,51.7,30.02,ENE,65,2.0,3.0,61,0.00,,---,0.00,VWS V14.01,2013-05-07 00:09:00,
2013-05-06 19:14:00,65.4,52.5,30.02,ENE,65,4.0,4.0,63,0.00,,---,0.00,VWS V14.01,2013-05-07 00:14:00,
2013-05-06 19:19:00,65.2,52.3,30.02,ENE,65,3.0,5.0,63,0.00,,---,0.00,VWS V14.01,2013-05-07 00:19:00,
2013-05-06 19:24:00,65.2,52.7,30.02,ENE,65,1.0,5.0,64,0.00,,---,0.00,VWS V14.01,2013-05-07 00:24:00,
2013-05-06 19:29:00,65.1,52.6,30.02,ENE,65,0.0,5.0,64,0.00,,---,0.00,VWS V14.01,2013-05-07 00:29:00,
2013-05-06 19:34:00,65.0,52.5,30.02,ENE,65,3.0,4.0,64,0.00,,---,0.00,VWS V14.01,2013-05-07 00:34:00,
2013-05-06 19:39:00,64.8,52.8,30.02,ENE,65,0.0,4.0,65,0.00,,---,0.00,VWS V14.01,2013-05-07 00:39:00,
2013-05-06 19:44:00,64.6,52.6,30.02,ENE,65,0.0,4.0,65,0.00,,---,0.00,VWS V14.01,2013-05-07 00:44:00,
2013-05-06 19:49:00,64.5,52.1,30.02,ENE,65,0.0,4.0,64,0.00,,---,0.00,VWS V14.01,2013-05-07 00:49:00,
2013-05-06 19:54:00,64.3,52.3,30.02,ENE,65,0.0,4.0,65,0.00,,---,0.00,VWS V14.01,2013-05-07 00:54:00,
2013-05-06 19:59:00,64.1,52.1,30.02,ENE,65,0.0,4.0,65,0.00,,---,0.00,VWS V14.01,2013-05-07 00:59:00,
2013-05-06 20:04:00,64.0,52.0,30.02,ENE,65,0.0,0.0,65,0.00,,---,0.00,VWS V14.01,2013-05-07 01:04:00,
2013-05-06 20:09:00,63.8,52.2,30.03,ENE,65,0.0,0.0,66,0.00,,---,0.00,VWS V14.01,2013-05-07 01:09:00,
2013-05-06 20:14:00,63.6,52.0,30.03,ENE,65,0.0,0.0,66,0.00,,---,0.00,VWS V14.01,2013-05-07 01:14:00,
2013-05-06 20:19:00,63.3,51.8,30.03,ENE,65,0.0,0.0,66,0.00,,---,0.00,VWS V14.01,2013-05-07 01:19:00,
2013-05-06 20:24:00,63.0,51.9,30.03,ENE,65,0.0,0.0,67,0.00,,---,0.00,VWS V14.01,2013-05-07 01:24:00,
2013-05-06 20:29:00,62.8,51.7,30.03,ENE,65,0.0,0.0,67,0.00,,---,0.00,VWS V14.01,2013-05-07 01:29:00,
2013-05-06 20:34:00,62.5,51.8,30.03,ENE,65,0.0,0.0,68,0.00,,---,0.00,VWS V14.01,2013-05-07 01:34:00,
2013-05-06 20:39:00,62.1,51.8,30.03,ENE,65,0.0,0.0,69,0.00,,---,0.00,VWS V14.01,2013-05-07 01:39:00,
2013-05-06 20:44:00,61.6,51.7,30.03,ENE,65,0.0,0.0,70,0.00,,---,0.00,VWS V14.01,2013-05-07 01:44:00,
2013-05-06 20:49:00,61.2,51.3,30.03,ENE,65,0.0,0.0,70,0.00,,---,0.00,VWS V14.01,2013-05-07 01:49:00,
2013-05-06 20:54:00,60.8,51.3,30.03,ENE,65,0.0,0.0,71,0.00,,---,0.00,VWS V14.01,2013-05-07 01:54:00,
2013-05-06 20:59:00,60.5,51.4,30.03,ENE,65,0.0,0.0,72,0.00,,---,0.00,VWS V14.01,2013-05-07 01:59:00,
2013-05-06 21:04:00,60.1,51.1,30.03,ENE,65,0.0,0.0,72,0.00,,---,0.00,VWS V14.01,2013-05-07 02:04:00,
2013-05-06 21:09:00,59.7,51.0,30.04,ENE,65,0.0,0.0,73,0.00,,---,0.00,VWS V14.01,2013-05-07 02:09:00,
2013-05-06 21:14:00,59.3,50.7,30.04,ENE,65,0.0,0.0,73,0.00,,---,0.00,VWS V14.01,2013-05-07 02:14:00,
2013-05-06 21:19:00,59.0,50.7,30.04,ENE,65,0.0,0.0,74,0.00,,---,0.00,VWS V14.01,2013-05-07 02:19:00,
2013-05-06 21:24:00,59.0,50.7,30.04,ENE,65,0.0,0.0,74,0.00,,---,0.00,VWS V14.01,2013-05-07 02:24:00,
2013-05-06 21:29:00,58.8,50.9,30.05,ENE,65,0.0,0.0,75,0.00,,---,0.00,VWS V14.01,2013-05-07 02:29:00,
2013-05-06 21:34:00,58.6,50.7,30.05,ENE,65,0.0,0.0,75,0.00,,---,0.00,VWS V14.01,2013-05-07 02:34:00,
2013-05-06 21:39:00,58.2,50.3,30.05,ENE,65,0.0,0.0,75,0.00,,---,0.00,VWS V14.01,2013-05-07 02:39:00,
2013-05-06 21:44:00,57.9,50.4,30.05,ENE,65,0.0,0.0,76,0.00,,---,0.00,VWS V14.01,2013-05-07 02:44:00,
2013-05-06 21:49:00,57.6,50.1,30.05,ENE,65,0.0,0.0,76,0.00,,---,0.00,VWS V14.01,2013-05-07 02:49:00,
2013-05-06 21:54:00,57.2,49.7,30.05,ENE,65,0.0,0.0,76,0.00,,---,0.00,VWS V14.01,2013-05-07 02:54:00,
2013-05-06 21:59:00,56.9,49.8,30.05,ENE,65,0.0,0.0,77,0.00,,---,0.00,VWS V14.01,2013-05-07 02:59:00,
2013-05-06 22:04:00,56.7,49.9,30.05,ENE,65,0.0,0.0,78,0.00,,---,0.00,VWS V14.01,2013-05-07 03:04:00,
2013-05-06 22:09:00,56.6,50.2,30.05,ENE,65,0.0,0.0,79,0.00,,---,0.00,VWS V14.01,2013-05-07 03:09:00,
2013-05-06 22:14:00,56.5,50.1,30.05,ENE,65,0.0,0.0,79,0.00,,---,0.00,VWS V14.01,2013-05-07 03:14:00,
2013-05-06 22:19:00,56.4,50.0,30.05,ENE,65,0.0,0.0,79,0.00,,---,0.00,VWS V14.01,2013-05-07 03:19:00,
2013-05-06 22:24:00,56.2,49.8,30.05,ENE,65,0.0,0.0,79,0.00,,---,0.00,VWS V14.01,2013-05-07 03:24:00,
2013-05-06 22:29:00,55.9,49.5,30.05,ENE,65,0.0,0.0,79,0.00,,---,0.00,VWS V14.01,2013-05-07 03:29:00,
2013-05-06 22:34:00,55.4,49.3,30.06,ENE,65,0.0,0.0,80,0.00,,---,0.00,VWS V14.01,2013-05-07 03:34:00,
2013-05-06 22:39:00,55.1,49.0,30.06,ENE,65,0.0,0.0,80,0.00,,---,0.00,VWS V14.01,2013-05-07 03:39:00,
2013-05-06 22:44:00,54.8,48.8,30.06,ENE,65,0.0,0.0,80,0.00,,---,0.00,VWS V14.01,2013-05-07 03:44:00,
2013-05-06 22:49:00,54.6,48.9,30.06,ENE,65,0.0,0.0,81,0.00,,---,0.00,VWS V14.01,2013-05-07 03:49:00,
2013-05-06 22:54:00,54.5,49.1,30.06,ENE,65,0.0,0.0,82,0.00,,---,0.00,VWS V14.01,2013-05-07 03:54:00,
2013-05-06 22:59:00,54.4,49.0,30.05,ENE,65,0.0,0.0,82,0.00,,---,0.00,VWS V14.01,2013-05-07 03:59:00,
2013-05-06 23:01:00,54.3,49.3,30.06,ENE,65,0.0,0.0,83,0.00,,---,0.00,VWS V14.01,2013-05-07 04:01:00,
2013-05-06 23:02:00,54.3,48.9,30.06,ENE,65,0.0,0.0,82,0.00,,---,0.00,VWS V14.01,2013-05-07 04:02:00,
2013-05-06 23:07:00,54.0,48.6,30.06,ENE,65,0.0,0.0,82,0.00,,---,0.00,VWS V14.01,2013-05-07 04:07:00,
2013-05-06 23:12:00,53.6,48.6,30.05,ENE,65,0.0,0.0,83,0.00,,---,0.00,VWS V14.01,2013-05-07 04:12:00,
2013-05-06 23:17:00,53.5,48.8,30.05,ENE,65,0.0,0.0,84,0.00,,---,0.00,VWS V14.01,2013-05-07 04:17:00,
2013-05-06 23:22:00,53.4,48.7,30.05,ENE,65,0.0,0.0,84,0.00,,---,0.00,VWS V14.01,2013-05-07 04:22:00,
2013-05-06 23:27:00,53.2,48.5,30.05,ENE,65,0.0,0.0,84,0.00,,---,0.00,VWS V14.01,2013-05-07 04:27:00,
2013-05-06 23:32:00,53.0,48.3,30.05,ENE,65,0.0,0.0,84,0.00,,---,0.00,VWS V14.01,2013-05-07 04:32:00,
2013-05-06 23:37:00,52.7,48.0,30.05,ENE,65,0.0,0.0,84,0.00,,---,0.00,VWS V14.01,2013-05-07 04:37:00,
2013-05-06 23:42:00,52.5,48.1,30.05,ENE,65,0.0,0.0,85,0.00,,---,0.00,VWS V14.01,2013-05-07 04:42:00,
2013-05-06 23:47:00,52.3,47.9,30.05,ENE,65,0.0,0.0,85,0.00,,---,0.00,VWS V14.01,2013-05-07 04:47:00,
2013-05-06 23:52:00,52.0,47.6,30.05,ENE,65,0.0,0.0,85,0.00,,---,0.00,VWS V14.01,2013-05-07 04:52:00,
2013-05-06 23:57:00,51.8,47.4,30.05,ENE,65,0.0,0.0,85,0.00,,---,0.00,VWS V14.01,2013-05-07 04:57:00,